星链-30795 (STARLINK-30795 )

导读 | 星芒AI

STARLINK-30795 是 SpaceX 星链(Starlink)卫星互联网项目中的一颗低轨通信卫星。该卫星属于星链计划的第三批部署任务,旨在为全球用户提供高速、低延迟的互联网服务。它运行在约 550 公里的近地轨道,采用先进的通信技术,支持宽带接入。该卫星的发射和运行有助于扩大星链网络的覆盖范围,特别是在偏远和网络基础设施薄弱的地区。

基本信息
目录编号:
58118
目录名称:
STARLINK-30795
国际标识:
2023-162A
轨道中心:
EARTH
卫星名称:
星链-30795
卫星全名:
星链-30795 (STARLINK-30795 )
卫星状态:
在轨 (已飞行740 天)
发射日期:
2023-10-22 UTC
国别 :
美国 (US)
星等 :
--
轨道信息
数据来源 国际轨道数据 AOE轨道数据
星历时间 2025-10-30T21:18:51+0800
18小时前
查看轨道信息
2025-10-31T00:00:00+0800
15小时前
查看轨道信息
半长轴 6937.211km 6937.218km
偏心率 0.0001202 0.0000999
轨道倾角 43.002° 43.002°
近地点辐角 267.352° 271.592°
升交点赤经 120.270° 119.664°
平近点角 92.718° 334.485°
近地点 558.242km 558.389km
远地点 559.91km 559.777km
周期 95.838分钟 95.838分钟
每日圈数 15.025378 15.025358
详细信息
固有亮度:
5
最大亮度:
0.3
卫星平台:
Starlink v2.0 mini
覆盖范围:
全球
运营商:
太空探索技术公司
运营商所在国:
美国
制造商(研发单位):
太空探索技术公司
制造商所在国:
美国
使用方式:
暂无
卫星简介
星链(Starlink)计划是由太空探索技术公司(SpaceX)提出的一个巨型低轨卫星互联网星座项目,计划在2019年至2024年间在太空搭建由约1.2万颗卫星组成的“星链”网络,其中1584颗将部署在地球上空550千米处的近地轨道,并从2020年开始工作。该卫星仍在工作。
2D轨道图
3D轨道图
轨道高度分析图
轨道倾角分析图
轨道综合分析图
查看轨道综合分析图